Wind_Speed
8 8 8 8 8 9 8 8 8 7 8 8 9 9 9 9 9 10 10 11 11 11 12 11 11 12 12 12 12 13 12 12 12 12 12 12 12 12 12 12 12 12 12 12
10 9 8 8 9 9 9 9 8 8 8 9 10 10 10 10 10 11 11 11 12 12 12 12 12 12 12 13 13 13 13 13 13 13 13 13 13 13 13 13 13 13 14 13
11 10 10 9 9 9 9 9 9 9 9 9 10 11 11 11 11 12 12 12 13 12 12 13 13 13 13 13 13 14 14 14 14 14 14 14 14 14 14 15 14 14 15 15
14 13 13 10 11 11 11 11 10 10 10 11 11 12 12 13 12 13 13 13 14 14 14 14 14 14 14 14 14 14 14 15 14 14 15 15 15 16 16 16 16 16 16 17
17 16 14 13 13 13 13 12 11 11 12 12 12 13 13 13 13 13 13 13 14 15 15 15 15 15 15 15 15 15 16 16 16 16 16 17 17 17 18 18 18 18 18 19
18 17 15 13 14 15 14 12 12 12 12 13 13 13 13 14 14 14 14 14 14 15 15 16 16 16 16 16 16 17 17 17 18 18 18 18 18 19 19 19 19 19 20 20
19 18 16 15 16 16 15 13 14 14 14 14 14 14 14 14 15 15 16 16 15 16 16 16 17 17 17 17 17 18 18 18 19 19 19 19 20 20 20 20 20 21 21 22
21 20 16 16 17 17 16 16 16 15 16 15 15 15 15 15 16 16 16 17 17 17 17 17 18 18 18 19 19 18 19 19 20 21 21 21 22 22 22 22 23 23 23 24
22 20 18 18 19 18 18 17 17 17 17 17 17 17 17 17 17 17 17 18 18 18 18 18 18 19 20 20 20 19 20 21 21 22 23 23 23 24 24 25 25 26 26 27
24 22 21 20 20 20 20 20 20 20 19 19 19 19 18 18 18 18 18 18 19 19 19 19 20 20 20 21 21 21 21 22 23 24 25 25 26 26 26 27 27 28 29 30
25 23 22 22 22 22 22 22 22 22 22 22 22 21 21 20 20 19 19 19 19 19 20 20 21 21 21 22 23 23 24 24 25 26 26 27 28 28 29 29 30 31 31 32
27 26 25 24 24 24 24 24 24 24 24 24 23 23 23 22 22 21 21 21 21 21 21 22 22 22 23 24 24 25 26 27 27 28 29 29 30 30 31 32 32 33 34 35
29 28 27 26 26 26 26 26 25 25 24 24 24 24 24 24 23 23 23 23 24 24 24 24 24 25 25 26 26 27 28 29 30 30 31 31 32 32 33 34 35 36 36 37
30 30 29 28 28 28 27 27 27 26 25 25 25 25 25 26 26 26 26 26 26 26 26 26 26 27 27 28 28 29 30 30 31 32 32 33 33 34 35 36 36 37 38 39
32 32 31 31 30 29 29 28 28 27 27 27 27 27 27 27 28 28 28 28 28 28 28 28 28 29 29 30 30 30 31 31 32 32 33 34 35 35 36 37 38 39 40 41
33 34 33 32 31 30 30 30 29 29 29 29 28 28 28 28 29 29 30 30 30 30 30 30 30 30 31 31 31 32 32 33 33 34 34 35 37 38 39 40 41 42 43 43
33 33 33 32 32 31 31 30 30 30 30 30 30 29 29 29 29 29 30 30 31 31 31 31 31 31 32 32 33 33 34 35 35 36 37 38 39 40 41 42 43 44 44 45
34 34 34 34 33 33 32 32 31 31 31 31 30 30 30 29 29 30 30 30 31 31 32 32 32 33 33 34 34 35 36 36 37 38 39 40 41 42 43 44 44 45 45 45
34 33 33 34 34 34 33 33 33 32 32 32 32 32 32 32 31 31 31 32 32 32 33 33 34 34 35 35 36 37 38 38 39 40 41 42 43 44 44 45 46 46 47 47
35 34 34 34 33 33 33 33 34 34 33 33 33 33 33 33 33 33 33 33 34 34 34 35 36 36 37 38 39 40 40 41 42 43 44 44 45 45 46 46 47 48 48 49
35 34 34 33 33 33 33 33 34 34 35 35 34 34 34 34 34 35 35 35 35 36 36 37 38 39 40 41 41 42 42 43 44 45 46 46 47 47 47 48 49 49 50 50
35 35 34 34 34 34 33 33 34 34 34 35 34 34 34 35 35 35 36 36 37 37 38 38 39 40 41 41 42 43 44 45 46 46 46 47 47 48 48 49 50 51 52 52
34 34 34 35 34 34 33 33 33 33 33 34 34 34 34 35 35 36 37 37 38 38 39 39 40 40 41 41 42 43 44 45 46 46 46 47 48 49 50 50 51 52 53 53
34 34 34 34 34 33 33 33 33 33 34 34 35 35 35 36 36 37 38 38 38 39 39 40 40 41 41 42 43 44 44 45 45 46 47 48 49 49 50 51 52 53 53 53
35 35 35 35 34 34 34 34 34 34 35 35 36 36 36 37 37 37 38 38 39 39 40 41 41 42 43 43 44 45 45 46 47 47 48 49 50 50 51 52 52 53 53 53
37 36 36 36 36 35 35 35 35 35 36 36 37 38 38 38 39 39 40 40 41 41 42 43 43 44 44 45 45 46 47 47 47 48 48 49 50 50 51 51 52 52 53 53
37 37 37 37 37 37 37 37 37 37 38 38 38 39 39 39 40 40 40 41 42 42 43 43 44 44 45 45 46 46 47 47 47 48 48 49 50 50 50 51 51 51 51 52
Wind_Direction
241 243 238 233 235 232 231 231 233 233 237 240 241 243 247 248 245 243 243 245 246 244 244 249 253 255 256 255 256 258 262 265 263 266 268 268 268 270 271 271 273 274 273 275
241 246 243 240 240 241 240 239 240 243 246 244 247 249 253 254 249 247 247 247 250 251 253 253 254 258 261 261 260 261 264 265 264 267 268 268 269 269 270 271 272 273 274 274
243 247 246 239 240 242 242 243 246 249 250 251 256 256 254 253 251 248 249 249 249 250 254 255 254 257 262 264 264 263 265 268 269 269 269 270 269 269 271 273 274 275 274 275
245 247 247 243 246 247 248 250 253 256 257 258 262 261 257 255 254 251 250 252 254 251 254 256 257 259 263 264 263 263 264 267 269 270 270 271 272 273 273 274 276 278 278 277
248 251 250 248 251 252 253 256 260 261 262 262 264 264 262 260 257 253 252 254 257 257 257 259 261 262 264 265 265 265 265 266 268 269 271 273 274 274 275 276 277 278 279 278
250 253 252 250 253 256 257 258 259 261 264 266 263 265 262 260 258 256 255 259 261 262 262 262 264 264 263 263 264 264 265 267 268 269 271 273 273 273 275 276 277 278 279 280
251 253 253 252 252 255 256 257 256 258 261 263 263 264 262 261 259 258 258 260 262 264 265 265 264 264 264 264 264 266 267 268 271 272 271 272 273 274 276 277 279 280 282 283
251 252 252 252 252 252 254 254 254 255 257 260 262 261 260 260 260 260 261 262 264 267 269 267 265 265 267 267 266 268 269 270 271 272 274 274 274 275 276 278 279 280 282 283
253 253 251 250 251 250 252 253 253 254 255 258 260 261 261 261 262 263 264 264 266 268 269 267 266 266 267 268 269 271 272 273 273 274 274 275 275 277 278 279 280 281 282 283
251 252 250 250 251 252 253 255 255 254 255 258 260 261 261 262 263 265 267 267 268 268 268 268 267 268 269 270 271 273 274 274 275 276 276 277 278 280 280 281 281 282 283 284
250 251 251 250 251 252 253 254 255 255 257 261 260 260 261 262 264 266 268 270 271 270 269 269 270 272 272 273 275 276 276 277 278 279 279 280 280 280 281 281 282 283 284 285
251 251 252 251 252 254 253 254 255 256 259 262 262 261 262 263 264 266 267 269 271 272 272 272 272 273 274 275 276 277 277 278 279 279 279 280 281 281 282 283 283 283 284 285
250 251 251 251 252 253 254 255 257 258 259 260 263 263 262 263 264 267 269 271 272 273 273 274 274 274 274 275 277 278 278 279 280 280 280 281 282 282 283 284 284 284 285 286
251 251 250 250 252 253 256 257 258 259 259 260 262 263 264 264 266 268 270 271 272 272 273 274 274 275 276 277 278 279 280 281 281 282 282 283 283 284 285 285 286 285 286 286
251 252 251 250 251 253 255 257 258 259 260 262 263 264 266 267 268 269 270 271 272 272 273 274 274 275 276 278 279 280 281 281 282 283 284 284 285 286 286 287 287 288 288 288
251 252 254 253 253 254 256 257 258 259 260 262 264 265 266 266 268 269 270 271 273 273 273 273 274 275 276 277 278 280 281 282 283 284 285 286 287 287 288 288 289 289 289 290
251 252 253 253 253 255 256 257 258 260 261 262 264 265 266 266 268 269 271 272 273 273 273 274 274 275 277 278 279 281 282 283 284 285 286 287 288 289 290 290 290 291 292 292
252 253 253 254 254 256 257 258 259 260 261 263 264 265 266 266 267 269 271 272 272 273 274 275 276 277 278 279 280 281 283 284 285 286 287 288 289 290 290 291 291 292 292 293
252 252 253 254 256 257 258 259 260 260 261 263 264 265 266 267 268 269 271 273 274 275 276 276 277 278 279 280 281 282 283 285 286 287 288 289 290 290 291 291 292 293 293 293
252 252 253 255 256 257 258 259 259 260 261 263 265 266 267 268 268 270 272 274 275 276 276 277 278 279 281 282 282 283 284 285 286 287 288 289 290 290 291 291 292 292 293 293
251 252 253 254 256 257 259 260 260 261 262 264 266 267 268 269 270 271 272 273 275 276 277 278 279 280 281 282 283 284 285 285 286 287 288 289 289 290 290 290 291 291 292 293
251 252 253 254 256 258 260 262 262 263 264 265 266 268 269 270 272 273 273 274 275 276 278 279 281 282 282 284 285 285 286 286 287 288 289 289 289 289 290 290 291 292 292 293
252 253 254 255 257 259 260 262 263 264 265 266 268 270 272 273 274 274 275 276 276 277 279 281 282 283 284 285 285 286 287 287 288 289 288 288 289 289 290 290 291 292 293 293
253 254 255 255 256 257 259 261 262 265 266 267 269 271 272 274 275 276 276 277 278 278 279 281 282 284 285 286 286 286 287 288 289 289 289 289 290 290 291 292 293 293 293 294
251 253 255 255 256 257 260 262 264 266 267 269 270 272 273 274 275 276 277 278 279 279 280 282 283 285 286 287 287 288 288 288 289 289 289 290 291 291 292 293 294 294 295 295
250 251 253 255 256 258 259 261 263 265 267 269 271 272 274 275 276 277 278 278 279 280 282 283 284 285 286 287 288 289 289 289 290 290 291 292 292 293 294 294 295 296 296 297
250 252 253 255 256 258 260 262 264 265 267 269 270 272 274 275 276 277 278 279 281 282 283 284 285 286 286 287 288 290 290 291 291 291 292 293 294 295 296 296 296 297 297 298
Height
5835 5835 5836 5837 5838 5839 5841 5842 5843 5844 5844 5845 5846 5846 5847 5847 5847 5848 5849 5849 5850 5851 5851 5852 5853 5853 5854 5854 5855 5855 5856 5856 5856 5856 5855 5855 5854 5854 5853 5853 5853 5852 5852 5852
5833 5834 5834 5836 5837 5838 5839 5840 5841 5842 5843 5843 5844 5844 5845 5845 5845 5846 5846 5847 5847 5848 5848 5849 5850 5850 5851 5851 5852 5852 5852 5852 5852 5852 5852 5852 5851 5851 5851 5850 5850 5850 5849 5849
5831 5832 5833 5834 5835 5836 5837 5838 5839 5840 5841 5841 5841 5842 5842 5843 5843 5843 5844 5844 5845 5845 5846 5846 5847 5847 5848 5848 5848 5849 5849 5849 5849 5849 5849 5849 5848 5848 5848 5847 5847 5847 5846 5846
5828 5830 5831 5835 5833 5834 5835 5836 5837 5837 5837 5838 5838 5839 5839 5840 5840 5840 5841 5841 5842 5842 5842 5843 5843 5844 5844 5844 5845 5845 5845 5846 5846 5845 5845 5845 5845 5844 5844 5844 5844 5843 5843 5842
5824 5825 5828 5830 5830 5831 5832 5833 5834 5834 5835 5835 5835 5835 5836 5836 5836 5837 5837 5838 5838 5838 5839 5839 5840 5840 5841 5841 5841 5841 5841 5841 5841 5841 5841 5841 5841 5840 5840 5840 5840 5839 5839 5838
5820 5822 5824 5828 5827 5827 5829 5830 5831 5831 5831 5831 5832 5833 5833 5833 5833 5833 5833 5834 5834 5835 5835 5835 5836 5836 5836 5837 5837 5837 5837 5837 5837 5836 5837 5836 5836 5836 5836 5835 5835 5834 5834 5833
5816 5817 5820 5822 5823 5824 5826 5828 5827 5827 5828 5828 5828 5829 5829 5829 5829 5829 5830 5830 5830 5831 5831 5831 5831 5832 5832 5832 5832 5832 5832 5832 5832 5832 5832 5832 5831 5831 5831 5830 5830 5829 5828 5828
5811 5813 5817 5817 5818 5820 5821 5822 5822 5823 5823 5824 5824 5824 5825 5825 5825 5825 5826 5826 5826 5826 5826 5827 5827 5827 5827 5827 5827 5827 5827 5827 5827 5826 5826 5826 5826 5825 5825 5824 5824 5823 5822 5821
5807 5810 5811 5812 5813 5814 5815 5817 5817 5818 5819 5819 5820 5820 5820 5821 5821 5821 5821 5821 5822 5822 5822 5822 5822 5822 5822 5822 5822 5822 5822 5821 5821 5821 5820 5820 5820 5819 5819 5818 5817 5816 5815 5814
5800 5803 5805 5806 5807 5809 5810 5811 5812 5813 5814 5814 5815 5815 5816 5816 5816 5816 5816 5817 5817 5817 5817 5817 5817 5817 5817 5816 5816 5816 5816 5816 5815 5815 5814 5813 5813 5812 5811 5811 5810 5808 5807 5806
5794 5796 5798 5800 5801 5802 5804 5805 5806 5807 5808 5808 5809 5810 5810 5811 5811 5811 5811 5811 5811 5811 5811 5811 5811 5811 5811 5810 5810 5810 5809 5809 5808 5808 5807 5806 5805 5805 5804 5803 5801 5800 5798 5797
5788 5790 5792 5794 5795 5796 5797 5798 5799 5800 5801 5802 5802 5803 5804 5804 5805 5805 5805 5805 5805 5805 5805 5805 5805 5805 5804 5804 5803 5803 5803 5802 5801 5800 5799 5798 5797 5796 5795 5794 5792 5790 5788 5786
5780 5782 5784 5786 5787 5789 5790 5791 5792 5793 5794 5795 5796 5796 5797 5798 5798 5798 5799 5799 5799 5799 5798 5798 5798 5798 5797 5797 5796 5796 5795 5794 5793 5792 5791 5789 5788 5787 5786 5784 5782 5780 5778 5775
5771 5773 5776 5778 5780 5781 5782 5784 5785 5786 5787 5788 5789 5789 5790 5791 5791 5791 5791 5791 5791 5791 5791 5791 5790 5790 5789 5789 5788 5787 5786 5785 5784 5783 5781 5780 5778 5777 5775 5773 5771 5769 5767 5764
5763 5765 5767 5769 5771 5773 5775 5776 5777 5779 5779 5780 5781 5782 5782 5783 5783 5783 5783 5783 5783 5783 5783 5782 5782 5781 5781 5780 5779 5778 5777 5776 5775 5773 5771 5770 5768 5766 5764 5762 5760 5758 5755 5752
5754 5756 5758 5761 5763 5765 5766 5768 5769 5770 5771 5772 5773 5773 5774 5774 5774 5775 5775 5775 5775 5774 5774 5774 5773 5772 5772 5771 5770 5769 5768 5766 5765 5763 5761 5759 5757 5755 5753 5750 5748 5745 5742 5739
5745 5747 5750 5752 5754 5756 5758 5759 5760 5761 5762 5763 5764 5764 5765 5765 5766 5766 5766 5766 5765 5765 5765 5764 5764 5763 5762 5761 5760 5759 5758 5756 5754 5753 5751 5748 5746 5744 5741 5738 5735 5732 5729 5725
5736 5738 5741 5743 5745 5747 5748 5750 5751 5752 5753 5754 5754 5755 5756 5756 5757 5757 5756 5756 5756 5755 5755 5755 5754 5753 5752 5751 5750 5749 5747 5745 5744 5742 5739 5737 5734 5731 5728 5725 5722 5718 5715 5712
5726 5729 5731 5733 5735 5737 5739 5740 5742 5743 5743 5744 5745 5746 5747 5747 5747 5747 5747 5747 5747 5746 5745 5744 5744 5743 5742 5740 5739 5738 5736 5734 5732 5730 5727 5724 5721 5718 5715 5712 5708 5705 5701 5697
5717 5719 5721 5723 5725 5727 5729 5731 5732 5733 5734 5735 5736 5736 5737 5737 5737 5737 5737 5737 5736 5736 5735 5734 5733 5732 5731 5729 5728 5726 5724 5722 5719 5717 5714 5711 5708 5705 5702 5698 5695 5691 5687 5683
5707 5709 5712 5714 5716 5718 5719 5721 5722 5723 5724 5725 5725 5726 5726 5727 5727 5727 5726 5726 5726 5725 5724 5723 5722 5720 5719 5717 5715 5713 5711 5709 5706 5703 5700 5697 5694 5691 5688 5684 5680 5676 5672 5668
5697 5700 5702 5704 5706 5708 5710 5711 5712 5713 5714 5714 5715 5715 5716 5716 5716 5715 5715 5715 5714 5713 5712 5711 5709 5708 5706 5704 5702 5700 5698 5695 5692 5689 5686 5683 5680 5676 5673 5669 5666 5662 5657 5653
5688 5690 5692 5694 5696 5698 5700 5701 5702 5702 5703 5704 5704 5704 5705 5705 5705 5704 5704 5703 5702 5701 5700 5699 5697 5696 5694 5692 5689 5687 5684 5681 5678 5675 5672 5669 5665 5662 5658 5654 5650 5646 5642 5637
5678 5681 5682 5684 5686 5688 5689 5690 5691 5692 5693 5693 5694 5694 5694 5694 5693 5693 5692 5691 5690 5689 5688 5687 5685 5683 5681 5679 5676 5674 5671 5668 5664 5661 5658 5654 5651 5647 5643 5639 5635 5630 5626 5621
5668 5671 5673 5675 5676 5678 5679 5680 5681 5682 5682 5683 5683 5683 5682 5682 5682 5681 5680 5679 5678 5677 5676 5674 5672 5670 5668 5666 5663 5660 5657 5653 5650 5647 5643 5640 5636 5632 5628 5623 5619 5614 5609 5605
5658 5660 5662 5664 5666 5667 5668 5670 5670 5671 5671 5672 5672 5671 5671 5671 5670 5670 5669 5667 5666 5665 5663 5661 5659 5657 5654 5652 5649 5646 5642 5639 5636 5632 5628 5624 5620 5616 5612 5608 5603 5598 5593 5588
5647 5649 5651 5653 5655 5656 5657 5659 5659 5660 5660 5660 5660 5660 5659 5659 5658 5657 5656 5655 5653 5652 5650 5648 5646 5643 5641 5638 5635 5632 5628 5625 5621 5617 5613 5609 5605 5601 5597 5592 5587 5582 5577 5572